Regional Weather Roundup
Issued by NWS

Home | Current Version | Previous Version | Graphics & Text | Print | Product List | Glossary On
Versions: 1 2 3 4 5 6 7 8 9 10 11 12 13 14 15 16 17 18 19 20 21 22 23 24 25 26 27 28 29 30 31 32 33 34 35 36 37 38 39 40 41 42 43 44 45 46 47 48 49 50
246
ASUS43 KFSD 211010
RWRSD

WEATHER ROUNDUP FOR SOUTH DAKOTA
NATIONAL WEATHER SERVICE SIOUX FALLS SD
500 AM CDT SAT OCT 21 2017

NOTE: "FAIR" INDICATES FEW OR NO CLOUDS BELOW 12,000 FEET WITH NO
SIGNIFICANT WEATHER AND/OR OBSTRUCTIONS TO VISIBILITY.


SDZ001>005-009-010-012>017-211100-
NORTHWEST AND NORTH CENTRAL SOUTH DAKOTA

CITY           SKY/WX    TMP DP  RH WIND       PRES   REMARKS
BUFFALO          N/A     48  32  53 W26G32    29.53S
FAITH            N/A     50  36  58 NW23G38   29.54R
MOBRIDGE       CLOUDY    59  41  51 NW17G25   29.43R
$$

SDZ012>016-024>037-041>051-057-063-072>074-211100-
SOUTHWEST AND SOUTH CENTRAL SOUTH DAKOTA

CITY           SKY/WX    TMP DP  RH WIND       PRES   REMARKS
RAPID CTY ARPT CLOUDY    50  30  46 N32G40    29.58R
PIERRE         MOCLDY    59  44  57 NW23      29.43R
CUSTER         CLOUDY    42  26  53 W8G18     29.64R
ELLSWORTH AFB  CLOUDY    51  30  44 N30G39    29.58R
PHILIP         CLOUDY    54  39  57 NW31G40   29.51R
PINE RIDGE     CLOUDY    53  41  63 NW8       29.57S
SPEARFISH      FAIR      46  28  49 W15G33    29.67R
WINNER         FAIR      62  54  74 W10       29.45R
$$

SDZ004>011-016>023-039-040-211100-
NORTHEAST SOUTH DAKOTA

CITY           SKY/WX    TMP DP  RH WIND       PRES   REMARKS
ABERDEEN       CLEAR     63  58  83 S15G23    29.39R
WATERTOWN      CLOUDY    62  57  83 S16       29.46S
BROOKINGS      CLOUDY    63  57  81 S16       29.49F
SISSETON         N/A     66  58  75 S18G26    29.41S
$$

SDZ017-020-022-023-036>040-048>070-211100-
SOUTHEAST SOUTH DAKOTA

CITY           SKY/WX    TMP DP  RH WIND       PRES   REMARKS
SIOUX FALLS    MOCLDY    66  60  81 S17G25    29.51S
HURON          PTCLDY    64  58  80 S13       29.42S
CHAMBERLAIN    CLEAR     63  60  91 SW10      29.42S
MITCHELL       CLOUDY    65  58  78 S12       29.45R
YANKTON        CLOUDY    68  60  75 S15G24    29.47F
$$

ABBREVIATIONS USED IN REMARKS
   TC - TEMPERATURE IN CELSIUS
  WCI - WIND CHILL INDEX
   HX - HEAT INDEX
  VSB - VISIBILITY





USA.gov is the U.S. government's official web portal to all federal, state and local government web resources and services.